This is the latest recevied weather packets stored in our database for station/object K7LER. If no packets are shown the sender has not sent any weather packets the latest 10 day(s).
| Time | Temp. | Humidity | Pressure | Rain* | Wind** | Luminosity | Snow |
|---|---|---|---|---|---|---|---|
| 1776997844 | 13.89° C | 63% | 1019.6 hPa | 0 mm | - | 25 W/m² | - |
| 1776997534 | 14.44° C | 62% | 1019.7 hPa | 0 mm | - | 33 W/m² | - |
| 1776997234 | 14.44° C | 60% | 1019.7 hPa | 0 mm | - | 46 W/m² | - |
| 1776996949 | 15° C | 61% | 1019.8 hPa | 0 mm | - | 53 W/m² | - |
| 1776996634 | 14.44° C | 60% | 1019.8 hPa | 0 mm | - | 63 W/m² | - |
| 1776996335 | 14.44° C | 62% | 1019.9 hPa | 0 mm | - | 77 W/m² | - |
| 1776996044 | 14.44° C | 61% | 1020 hPa | 0 mm | - | 91 W/m² | - |
| 1776995736 | 15° C | 60% | 1020 hPa | 0 mm | - | 105 W/m² | - |
| 1776995434 | 15° C | 60% | 1020 hPa | 0 mm | - | 120 W/m² | - |
| 1776995169 | 15° C | 61% | 1020 hPa | 0 mm | - | 134 W/m² | - |
| 1776994834 | 15° C | 61% | 1020.1 hPa | 0 mm | - | 149 W/m² | - |
| 1776994534 | 14.44° C | 61% | 1020.1 hPa | 0 mm | - | 163 W/m² | - |
| 1776994246 | 14.44° C | 60% | 1020.2 hPa | 0 mm | - | 176 W/m² | - |
| 1776993934 | 15° C | 60% | 1020.1 hPa | 0 mm | - | 178 W/m² | - |
| 1776993634 | 15° C | 61% | 1020.1 hPa | 0 mm | - | 185 W/m² | - |
| 1776993346 | 15° C | 61% | 1020.1 hPa | 0 mm | - | 206 W/m² | - |
| 1776993035 | 15° C | 61% | 1020.1 hPa | 0 mm | - | 90 W/m² | - |
| 1776992735 | 15° C | 61% | 1020.2 hPa | 0 mm | - | 276 W/m² | - |
| 1776992450 | 15° C | 61% | 1020.2 hPa | 0 mm | - | 304 W/m² | - |
| 1776992136 | 14.44° C | 62% | 1020.3 hPa | 0 mm | - | 334 W/m² | - |
| 1776991836 | 14.44° C | 61% | 1020.2 hPa | 0 mm | - | 250 W/m² | - |
| 1776991563 | 14.44° C | 60% | 1020.3 hPa | 0 mm | - | 369 W/m² | - |
| 1776991235 | 14.44° C | 61% | 1020.3 hPa | 0 mm | - | 241 W/m² | - |
| 1776990936 | 15° C | 61% | 1020.4 hPa | 0 mm | - | 158 W/m² | - |
| 1776990645 | 15° C | 58% | 1020.4 hPa | 0 mm | - | 155 W/m² | - |
* Rain latest hour (hover to see other rain measurements)
** Current wind speed in m/s (hover to see current wind gust speed)